| time (UTC) | temp C | wind direction | speed KPH | gust KPH | rain 1hr cm | rain 24hr cm | rain mn cm | humidity % | barometer mb |
| 20260507231958 | 2 | 250 | 19.3 | 0.0 | 0.00 | 0.00 | 0.00 | 99 | |
| 20260507222300 | 2 | 320 | 3.2 | 22.5 | 0.00 | 0.00 | 0.00 | 99 | |
| 20260507211959 | 2 | 250 | 8.0 | 0.0 | 0.00 | 0.00 | 0.00 | 99 | |
| 20260507202000 | 2 | 260 | 11.3 | 0.0 | 0.00 | 0.00 | 0.00 | 99 | |
| 20260507192101 | 2 | 280 | 25.7 | 0.0 | 0.00 | 0.00 | 0.00 | 99 | |
| 20260507181957 | 3 | 260 | 14.5 | 0.0 | 0.00 | 0.00 | 0.00 | 99 | |
| 20260507171958 | 3 | 240 | 14.5 | 0.0 | 0.00 | 0.00 | 0.00 | 99 | |
| 20260507162259 | 3 | 250 | 14.5 | 0.0 | 0.00 | 0.00 | 0.00 | 99 | |
| 20260507151958 | 3 | 230 | 14.5 | 35.4 | 0.00 | 0.00 | 0.00 | 99 | |
| 20260507141959 | 5 | 260 | 19.3 | 41.8 | 0.00 | 0.00 | 0.00 | 99 | |
| 20260507132101 | 3 | 300 | 11.3 | 0.0 | 0.00 | 0.00 | 0.00 | 99 | |
| 20260507121958 | 5 | 270 | 14.5 | 32.2 | 0.00 | 0.00 | 0.00 | 99 | |
| 20260507112027 | 3 | 260 | 14.5 | 35.4 | 0.00 | 0.00 | 0.00 | 99 | |
| 20260507102158 | 3 | 220 | 25.7 | 46.7 | 0.00 | 0.00 | 0.00 | 99 | |
| 20260507091959 | 3 | 230 | 19.3 | 46.7 | 0.00 | 0.00 | 0.00 | 99 | |
| 20260507081958 | 3 | 280 | 19.3 | 41.8 | 0.00 | 0.00 | 0.00 | 99 | |
| 20260507071958 | 3 | 240 | 25.7 | 46.7 | 0.00 | 0.00 | 0.00 | 99 | |
| 20260507061958 | 3 | 240 | 22.5 | 38.6 | 0.00 | 0.00 | 0.00 | 99 | |
| 20260507051958 | 5 | 310 | 11.3 | 0.0 | 0.00 | 0.00 | 0.00 | 99 | |
| 20260507042202 | 3 | 210 | 11.3 | 0.0 | 0.00 | 0.00 | 0.00 | 99 | |
| 20260507031958 | 5 | 220 | 19.3 | 38.6 | 0.00 | 0.00 | 0.00 | 99 | |
| 20260507021957 | 5 | 250 | 14.5 | 0.0 | 0.00 | 0.00 | 0.00 | 99 | |
| 20260507012058 | 5 | 270 | 22.5 | 49.9 | 0.00 | 0.00 | 0.00 | 93 | |
| 20260507001958 | 5 | 250 | 29.0 | 46.7 | 0.00 | 0.00 | 0.00 | 99 |